�������l�o���
Date,Time,MP-1(��Sv/h),MP-2(��Sv/h),MP-3(��Sv/h),MP-4(��Sv/h),MP-5(��Sv/h),MP-6(��Sv/h),MP-7(��Sv/h),MP-8(��Sv/h),����,����(m/s),���J
2020/05/28,00:00,0.687,0.985,0.627,1.185,0.851,0.400,0.687,0.645,�k�k��,8.1,��
2020/05/28,00:10,0.687,0.983,0.626,1.186,0.850,0.400,0.689,0.648,�k�k��,8.0,��
2020/05/28,00:20,0.688,0.984,0.626,1.186,0.849,0.399,0.686,0.647,�k��,7.9,��
2020/05/28,00:30,0.687,0.985,0.627,1.185,0.851,0.399,0.685,0.647,�k��,6.5,��
2020/05/28,00:40,0.687,0.986,0.627,1.185,0.850,0.397,0.688,0.647,�k�k��,4.9,��
2020/05/28,00:50,0.686,0.985,0.627,1.184,0.850,0.399,0.686,0.646,�k�k��,2.6,��
2020/05/28,01:00,0.686,0.986,0.627,1.183,0.848,0.399,0.686,0.649,�k�k��,1.7,��
2020/05/28,01:10,0.687,0.985,0.626,1.185,0.850,0.399,0.684,0.646,�k�k��,1.7,��
2020/05/28,01:20,0.686,0.985,0.627,1.186,0.850,0.398,0.686,0.646,�k�k��,2.0,��
2020/05/28,01:30,0.688,0.982,0.626,1.187,0.851,0.398,0.688,0.648,�k,2.9,��
2020/05/28,01:40,0.686,0.984,0.628,1.186,0.849,0.398,0.687,0.647,�k,2.6,��
2020/05/28,01:50,0.685,0.984,0.626,1.184,0.849,0.398,0.687,0.647,�k,3.1,��
2020/05/28,02:00,0.687,0.983,0.625,1.185,0.850,0.397,0.687,0.646,�k,2.9,��
2020/05/28,02:10,0.688,0.983,0.626,1.186,0.848,0.397,0.687,0.647,�k,2.5,��
2020/05/28,02:20,0.687,0.982,0.626,1.183,0.851,0.398,0.687,0.646,�k�k��,2.2,��
2020/05/28,02:30,0.687,0.983,0.625,1.185,0.849,0.397,0.688,0.646,�k,2.3,��
2020/05/28,02:40,0.687,0.983,0.625,1.185,0.850,0.399,0.687,0.646,�k��,3.4,��
2020/05/28,02:50,0.686,0.984,0.627,1.185,0.850,0.399,0.687,0.647,�k��,2.9,��
2020/05/28,03:00,0.686,0.983,0.625,1.186,0.851,0.398,0.687,0.645,�k��,4.2,��
2020/05/28,03:10,0.686,0.983,0.626,1.184,0.851,0.398,0.688,0.647,�k�k��,4.1,��
2020/05/28,03:20,0.687,0.984,0.627,1.184,0.850,0.398,0.685,0.648,���k��,4.0,��
2020/05/28,03:30,0.685,0.981,0.623,1.186,0.849,0.398,0.686,0.645,���k��,4.8,��
2020/05/28,03:40,0.684,0.982,0.626,1.185,0.847,0.398,0.686,0.646,���k��,4.7,��
2020/05/28,03:50,0.685,0.984,0.626,1.186,0.851,0.398,0.686,0.646,��,5.2,��
2020/05/28,04:00,0.686,0.983,0.627,1.185,0.850,0.398,0.687,0.647,��,3.6,��
2020/05/28,04:10,0.686,0.984,0.625,1.187,0.851,0.397,0.688,0.645,��,5.4,��
2020/05/28,04:20,0.687,0.982,0.626,1.184,0.849,0.397,0.685,0.645,��,7.9,��
2020/05/28,04:30,0.685,0.983,0.626,1.186,0.848,0.397,0.685,0.647,��,7.8,��
2020/05/28,04:40,0.686,0.984,0.625,1.183,0.851,0.397,0.687,0.647,��,8.2,��
2020/05/28,04:50,0.685,0.982,0.627,1.188,0.847,0.397,0.685,0.648,��,9.1,��
2020/05/28,05:00,0.690,0.982,0.625,1.185,0.851,0.396,0.685,0.645,��,8.3,��
2020/05/28,05:10,0.687,0.984,0.627,1.186,0.850,0.396,0.686,0.646,��,8.7,��
2020/05/28,05:20,0.687,0.981,0.626,1.183,0.850,0.397,0.685,0.645,��,9.0,��
2020/05/28,05:30,0.685,0.984,0.625,1.188,0.851,0.398,0.687,0.647,��,9.4,��
2020/05/28,05:40,0.685,0.985,0.627,1.188,0.849,0.397,0.684,0.646,���k��,7.8,��
2020/05/28,05:50,0.687,0.982,0.626,1.188,0.850,0.398,0.686,0.646,���k��,7.4,��
2020/05/28,06:00,0.687,0.982,0.627,1.190,0.848,0.397,0.685,0.647,���k��,8.6,��
2020/05/28,06:10,0.688,0.983,0.628,1.188,0.851,0.399,0.684,0.647,���k��,9.4,��
2020/05/28,06:20,0.688,0.985,0.628,1.188,0.851,0.398,0.683,0.646,��,10.5,��
2020/05/28,06:30,0.688,0.986,0.627,1.188,0.852,0.399,0.684,0.646,��,7.9,��
2020/05/28,06:40,0.688,0.984,0.628,1.188,0.851,0.398,0.685,0.646,��,8.1,��
2020/05/28,06:50,0.689,0.983,0.630,1.190,0.852,0.397,0.685,0.645,��,6.9,��
2020/05/28,07:00,0.689,0.983,0.629,1.190,0.851,0.397,0.684,0.647,��,6.1,��
2020/05/28,07:10,0.687,0.981,0.630,1.189,0.850,0.396,0.685,0.647,��,7.1,��
2020/05/28,07:20,0.687,0.984,0.627,1.189,0.850,0.397,0.686,0.645,��,5.1,��
2020/05/28,07:30,0.689,0.983,0.627,1.191,0.849,0.397,0.683,0.646,���k��,4.1,��
2020/05/28,07:40,0.688,0.982,0.628,1.190,0.849,0.396,0.685,0.646,�k��,3.1,��
2020/05/28,07:50,0.687,0.982,0.625,1.190,0.849,0.399,0.684,0.646,���k��,3.5,��
2020/05/28,08:00,0.688,0.982,0.626,1.190,0.850,0.397,0.684,0.645,�k��,3.1,��
2020/05/28,08:10,0.688,0.982,0.628,1.189,0.851,0.397,0.687,0.644,�k��,2.8,��
2020/05/28,08:20,0.688,0.980,0.632,1.192,0.850,0.398,0.685,0.645,�k��,3.6,��
2020/05/28,08:30,0.688,0.983,0.628,1.187,0.851,0.398,0.685,0.645,�k��,3.8,��
2020/05/28,08:40,0.688,0.980,0.629,1.193,0.850,0.398,0.684,0.645,���k��,3.4,��
2020/05/28,08:50,0.689,0.981,0.628,1.191,0.851,0.398,0.684,0.644,���k��,4.0,��
2020/05/28,09:00,0.688,0.978,0.625,1.193,0.850,0.399,0.684,0.645,��,2.0,��
2020/05/28,09:10,0.689,0.979,0.625,1.188,0.851,0.399,0.685,0.644,�k�k��,2.6,��
2020/05/28,09:20,0.690,0.978,0.624,1.191,0.850,0.400,0.686,0.645,�k�k��,2.2,��
2020/05/28,09:30,0.689,0.981,0.625,1.189,0.849,0.399,0.687,0.644,��쐼,1.5,��
2020/05/28,09:40,0.688,0.979,0.624,1.189,0.850,0.400,0.686,0.644,��쓌,2.6,��
2020/05/28,09:50,0.689,0.979,0.629,1.191,0.850,0.400,0.686,0.645,���쓌,1.9,��
2020/05/28,10:00,0.689,0.980,0.626,1.191,0.851,0.400,0.686,0.644,��,3.0,��
2020/05/28,10:10,0.690,0.981,0.624,1.193,0.849,0.399,0.687,0.643,��,2.0,��
2020/05/28,10:20,0.690,0.981,0.627,1.189,0.852,0.399,0.687,0.645,��,2.0,��
2020/05/28,10:30,0.692,0.983,0.626,1.191,0.852,0.399,0.686,0.645,-,-,��
2020/05/28,10:40,0.691,0.981,0.627,1.192,0.853,0.400,0.687,0.644,-,-,��
2020/05/28,10:50,0.689,0.983,0.628,1.189,0.853,0.400,0.686,0.644,-,-,-
2020/05/28,11:00,0.691,0.984,0.627,1.188,0.854,0.399,0.688,0.646,-,-,-
2020/05/28,11:10,0.691,0.983,0.625,1.192,0.853,0.399,0.687,0.644,-,-,-
2020/05/28,11:20,0.691,0.982,0.626,1.190,0.854,0.400,0.687,0.645,-,-,-
2020/05/28,11:30,0.690,0.987,0.626,1.189,0.854,0.399,0.686,0.646,-,-,-
2020/05/28,11:40,0.692,0.989,0.627,1.190,0.853,0.401,0.688,0.645,-,-,-
2020/05/28,11:50,0.690,0.992,0.627,1.191,0.854,0.399,0.687,0.645,-,-,-
2020/05/28,12:00,0.690,0.989,0.630,1.190,0.856,0.398,0.688,0.646,-,-,-
2020/05/28,12:10,0.690,0.992,0.628,1.191,0.856,0.399,0.687,0.646,-,-,-
2020/05/28,12:20,0.692,0.992,0.628,1.191,0.856,0.399,0.688,0.644,-,-,-
2020/05/28,12:30,0.691,0.994,0.627,1.190,0.855,0.400,0.689,0.644,-,-,-
2020/05/28,12:40,0.692,0.988,0.627,1.191,0.857,0.399,0.686,0.645,-,-,-
2020/05/28,12:50,0.693,0.990,0.628,1.193,0.856,0.400,0.687,0.646,-,-,-
2020/05/28,13:00,0.692,0.988,0.629,1.193,0.858,0.399,0.688,0.648,-,-,-
2020/05/28,13:10,0.693,0.991,0.629,1.192,0.858,0.400,0.688,0.645,-,-,-
2020/05/28,13:20,0.693,0.991,0.628,1.193,0.857,0.399,0.688,0.647,�쓌,4.9,��
2020/05/28,13:30,0.690,0.991,0.627,1.195,0.857,0.400,0.689,0.645,�쓌,4.6,��
2020/05/28,13:40,0.692,0.992,0.627,1.192,0.857,0.400,0.689,0.646,�쓌,4.4,��
2020/05/28,13:50,0.693,0.990,0.630,1.194,0.858,0.400,0.689,0.644,��쓌,4.2,��
2020/05/28,14:00,0.692,0.991,0.631,1.194,0.859,0.398,0.689,0.644,��쓌,6.0,��
2020/05/28,14:10,0.693,0.989,0.621,1.193,0.857,0.401,0.689,0.646,��쓌,6.1,��
2020/05/28,14:20,0.691,0.993,0.623,1.191,0.857,0.400,0.689,0.645,��쓌,6.6,��
2020/05/28,14:30,0.692,0.990,0.625,1.195,0.857,0.399,0.689,0.645,��쓌,6.5,��
2020/05/28,14:40,0.691,0.994,0.626,1.195,0.860,0.398,0.688,0.646,��쓌,5.8,��
2020/05/28,14:50,0.693,0.994,0.624,1.194,0.857,0.400,0.689,0.645,��쓌,5.5,��
2020/05/28,15:00,0.693,0.993,0.624,1.195,0.860,0.401,0.688,0.646,��쓌,5.6,��
2020/05/28,15:10,0.694,0.993,0.628,1.195,0.859,0.400,0.689,0.647,��쓌,7.3,��
2020/05/28,15:20,0.694,0.996,0.626,1.194,0.858,0.401,0.689,0.646,��쓌,7.4,��
2020/05/28,15:30,0.692,0.993,0.626,1.195,0.860,0.400,0.689,0.646,��,6.0,��
2020/05/28,15:40,0.691,0.995,0.626,1.195,0.858,0.401,0.688,0.646,��,6.7,��
2020/05/28,15:50,0.693,0.994,0.627,1.195,0.861,0.400,0.688,0.646,��쓌,7.8,��
2020/05/28,16:00,0.694,0.995,0.626,1.196,0.859,0.399,0.690,0.645,��쓌,7.0,��
2020/05/28,16:10,0.695,0.995,0.625,1.196,0.860,0.400,0.688,0.645,��,7.8,��
2020/05/28,16:20,0.693,0.996,0.625,1.195,0.860,0.401,0.689,0.645,��,7.5,��
2020/05/28,16:30,0.692,0.997,0.625,1.194,0.860,0.402,0.687,0.646,��,6.9,��
2020/05/28,16:40,0.692,0.997,0.625,1.196,0.859,0.401,0.687,0.646,��쓌,7.1,��
2020/05/28,16:50,0.693,0.996,0.624,1.196,0.861,0.401,0.688,0.645,��,7.5,��
2020/05/28,17:00,0.691,0.997,0.626,1.193,0.862,0.401,0.688,0.645,��,7.8,��
2020/05/28,17:10,0.694,0.999,0.625,1.198,0.859,0.402,0.685,0.648,��,7.1,��
2020/05/28,17:20,0.693,0.998,0.626,1.197,0.860,0.402,0.688,0.645,��,6.7,��
2020/05/28,17:30,0.696,0.999,0.624,1.198,0.856,0.400,0.687,0.647,��,6.5,��
2020/05/28,17:40,0.690,0.999,0.625,1.197,0.861,0.402,0.690,0.646,��,7.5,��
2020/05/28,17:50,0.691,0.998,0.625,1.196,0.859,0.402,0.687,0.646,��,7.5,��
2020/05/28,18:00,0.691,0.998,0.624,1.198,0.860,0.401,0.686,0.648,��,7.2,��
2020/05/28,18:10,0.694,1.000,0.626,1.197,0.860,0.401,0.687,0.648,��,6.7,��
2020/05/28,18:20,0.694,1.002,0.626,1.196,0.859,0.401,0.686,0.648,��,7.9,��
2020/05/28,18:30,0.692,1.001,0.624,1.198,0.859,0.400,0.687,0.648,��,7.9,��
2020/05/28,18:40,0.694,1.001,0.627,1.199,0.858,0.401,0.687,0.649,��,8.4,��
2020/05/28,18:50,0.694,0.999,0.626,1.197,0.860,0.403,0.688,0.648,��,8.4,��
2020/05/28,19:00,0.696,1.000,0.625,1.202,0.861,0.402,0.687,0.649,��,7.8,��
2020/05/28,19:10,0.695,1.001,0.627,1.197,0.858,0.403,0.688,0.648,��,7.3,��
2020/05/28,19:20,0.696,1.001,0.626,1.200,0.860,0.404,0.689,0.648,��,6.9,��
2020/05/28,19:30,0.694,1.001,0.627,1.200,0.862,0.404,0.690,0.649,��,6.8,��
2020/05/28,19:40,0.695,0.999,0.629,1.199,0.862,0.403,0.689,0.648,��,7.4,��
2020/05/28,19:50,0.695,0.999,0.628,1.200,0.862,0.404,0.689,0.648,��쐼,7.1,��
2020/05/28,20:00,0.694,1.000,0.627,1.200,0.862,0.403,0.690,0.649,��쐼,6.3,��
2020/05/28,20:10,0.696,1.002,0.629,1.200,0.863,0.402,0.691,0.648,��쐼,6.5,��
2020/05/28,20:20,0.694,1.000,0.629,1.201,0.864,0.402,0.689,0.647,��쐼,6.7,��
2020/05/28,20:30,0.695,1.000,0.628,1.200,0.864,0.403,0.690,0.649,�쐼,6.2,��
2020/05/28,20:40,0.694,0.999,0.628,1.199,0.861,0.404,0.690,0.649,�쐼,5.2,�L
2020/05/28,20:50,0.695,0.999,0.627,1.199,0.863,0.404,0.691,0.649,�쐼,4.1,��
2020/05/28,21:00,0.694,0.996,0.627,1.200,0.863,0.403,0.689,0.647,���쐼,4.5,��
2020/05/28,21:10,0.695,0.999,0.628,1.200,0.861,0.403,0.689,0.648,���쐼,3.6,��
2020/05/28,21:20,0.697,1.001,0.628,1.199,0.861,0.403,0.689,0.647,�쐼,3.9,��
2020/05/28,21:30,0.694,0.997,0.626,1.198,0.862,0.403,0.689,0.648,���쐼,4.3,��
2020/05/28,21:40,0.693,0.998,0.628,1.199,0.863,0.404,0.690,0.648,�쐼,3.3,��
2020/05/28,21:50,0.694,0.999,0.627,1.201,0.863,0.403,0.688,0.648,���쐼,3.3,��
2020/05/28,22:00,0.695,0.998,0.626,1.200,0.861,0.404,0.689,0.648,��,2.3,��
2020/05/28,22:10,0.694,0.999,0.627,1.199,0.862,0.402,0.690,0.647,���k��,2.0,��
2020/05/28,22:20,0.695,0.997,0.627,1.196,0.861,0.401,0.688,0.649,���쐼,1.7,��
2020/05/28,22:30,0.694,0.998,0.627,1.200,0.862,0.402,0.688,0.648,���쐼,1.7,��
2020/05/28,22:40,0.694,0.998,0.627,1.200,0.861,0.403,0.689,0.649,�쐼,3.4,��
2020/05/28,22:50,0.693,0.998,0.627,1.201,0.862,0.403,0.689,0.647,�쐼,5.3,��
2020/05/28,23:00,0.695,1.000,0.627,1.199,0.861,0.403,0.690,0.647,�쐼,5.4,��
2020/05/28,23:10,0.693,0.997,0.626,1.198,0.862,0.402,0.688,0.647,��,4.3,��
2020/05/28,23:20,0.693,0.995,0.627,1.199,0.863,0.402,0.688,0.649,��,4.1,��
2020/05/28,23:30,0.694,0.997,0.625,1.198,0.861,0.401,0.689,0.648,��,4.0,��
2020/05/28,23:40,0.693,0.997,0.629,1.199,0.861,0.401,0.689,0.649,��,4.2,��
2020/05/28,23:50,0.692,0.999,0.627,1.201,0.862,0.402,0.689,0.648,��,4.1,��
